When you browse on this site, cookies collect data to enhance your experience and personalize the content and advertising you see.
Visit our Privacy Policy to learn more. By continuing to use the site, you agree to this use of cookies and data.
  • In Lithuania
  • List of Countries
  • For 7 days
  • Water Temperature
  • Satellite Maps
  • Weather Map
  • Weather Widgets
  • user-avatar
    Login

    Hourly Weather Viedma

    Today, 12 December, Wednesday

    Time Temperature Precipitation Wind Pressure Humidity
    00:00 +20°C° 0 mm 2 mps 756 mmHg 40%
    01:00 +20°C° 0 mm 3 mps 756 mmHg 40%
    02:00 +19°C° 0 mm 3 mps 756 mmHg 40%
    03:00 +19°C° 0 mm 3 mps 756 mmHg 43%
    04:00 +19°C° 0 mm 3 mps 756 mmHg 46%
    05:00 +19°C° 0 mm 4 mps 757 mmHg 49%
    06:00 +20°C° 0 mm 4 mps 757 mmHg 44%
    07:00 +21°C° 0 mm 5 mps 757 mmHg 39%
    08:00 +22°C° 0 mm 5 mps 758 mmHg 34%
    09:00 +23°C° 0 mm 4 mps 758 mmHg 32%
    10:00 +25°C° 0 mm 3 mps 757 mmHg 30%
    11:00 +26°C° 0 mm 3 mps 757 mmHg 28%
    12:00 +26°C° 0 mm 3 mps 757 mmHg 27%
    13:00 +27°C° 0 mm 3 mps 757 mmHg 26%
    14:00 +28°C° 0 mm 4 mps 756 mmHg 25%
    15:00 +27°C° 0 mm 4 mps 756 mmHg 27%
    16:00 +26°C° 0 mm 5 mps 755 mmHg 28%
    17:00 +24°C° 0 mm 6 mps 755 mmHg 30%
    18:00 +23°C° 0 mm 6 mps 755 mmHg 32%
    19:00 +22°C° 0 mm 5 mps 755 mmHg 35%
    20:00 +21°C° 0 mm 5 mps 755 mmHg 37%
    21:00 +20°C° 0 mm 5 mps 755 mmHg 41%
    22:00 +20°C° 0 mm 6 mps 755 mmHg 45%
    23:00 +20°C° 0 mm 7 mps 755 mmHg 48%

    Tomorrow, 13 December, Thursday

    Time Temperature Precipitation Wind Pressure Humidity
    00:00 +18°C° 0 mm 7 mps 755 mmHg 51%
    01:00 +18°C° 0 mm 7 mps 754 mmHg 54%
    02:00 +18°C° 0 mm 7 mps 754 mmHg 56%
    03:00 +19°C° 0 mm 6 mps 753 mmHg 60%
    04:00 +17°C° 0 mm 6 mps 753 mmHg 63%
    05:00 +17°C° 0 mm 6 mps 753 mmHg 66%
    06:00 +21°C° 0 mm 6 mps 753 mmHg 56%
    07:00 +23°C° 0 mm 6 mps 753 mmHg 46%
    08:00 +27°C° 0 mm 6 mps 753 mmHg 35%
    09:00 +28°C° 0 mm 6 mps 752 mmHg 34%
    10:00 +29°C° 0 mm 7 mps 752 mmHg 33%
    11:00 +30°C° 0 mm 7 mps 752 mmHg 32%
    12:00 +32°C° 0 mm 7 mps 751 mmHg 31%
    13:00 +32°C° 0 mm 7 mps 750 mmHg 30%
    14:00 +33°C° 0 mm 7 mps 750 mmHg 30%
    15:00 +31°C° 2.9 mm 8 mps 749 mmHg 38%
    16:00 +28°C° 2.9 mm 8 mps 749 mmHg 46%
    17:00 +26°C° 2.9 mm 9 mps 749 mmHg 54%
    18:00 +24°C° 6.5 mm 8 mps 749 mmHg 60%
    19:00 +22°C° 6.5 mm 7 mps 750 mmHg 67%
    20:00 +21°C° 6.5 mm 6 mps 750 mmHg 73%
    21:00 +21°C° 0.2 mm 7 mps 750 mmHg 71%
    22:00 +21°C° 0.2 mm 8 mps 750 mmHg 69%
    23:00 +21°C° 0.2 mm 9 mps 750 mmHg 67%

    Day after tomorrow, 14 December, Friday

    Time Temperature Precipitation Wind Pressure Humidity
    00:00 +20°C° 0 mm 8 mps 749 mmHg 67%
    01:00 +20°C° 0 mm 8 mps 749 mmHg 66%
    02:00 +20°C° 0 mm 8 mps 749 mmHg 66%
    03:00 +18°C° 0.1 mm 8 mps 749 mmHg 70%
    04:00 +18°C° 0.1 mm 8 mps 748 mmHg 74%
    05:00 +17°C° 0.1 mm 8 mps 748 mmHg 78%
    06:00 +18°C° 0 mm 8 mps 748 mmHg 68%
    07:00 +21°C° 0 mm 8 mps 748 mmHg 59%
    08:00 +22°C° 0 mm 8 mps 748 mmHg 49%
    09:00 +22°C° 0 mm 8 mps 748 mmHg 50%
    10:00 +23°C° 0 mm 8 mps 748 mmHg 50%
    11:00 +23°C° 0 mm 8 mps 747 mmHg 51%
    12:00 +23°C° 0.2 mm 8 mps 747 mmHg 48%
    13:00 +24°C° 0.2 mm 8 mps 747 mmHg 45%
    14:00 +24°C° 0.2 mm 8 mps 748 mmHg 42%
    15:00 +23°C° 0.7 mm 10 mps 748 mmHg 47%
    16:00 +22°C° 0.7 mm 11 mps 749 mmHg 52%
    17:00 +21°C° 0.7 mm 12 mps 749 mmHg 58%
    18:00 +19°C° 0 mm 11 mps 750 mmHg 57%
    19:00 +19°C° 0 mm 10 mps 751 mmHg 56%
    20:00 +18°C° 0 mm 8 mps 752 mmHg 55%
    21:00 +18°C° 0 mm 8 mps 753 mmHg 58%
    22:00 +17°C° 0 mm 7 mps 754 mmHg 61%
    23:00 +17°C° 0 mm 6 mps 754 mmHg 64%

    15 December, Saturday

    Time Temperature Precipitation Wind Pressure Humidity
    00:00 +17°C° 0 mm 6 mps 754 mmHg 67%
    01:00 +16°C° 0 mm 5 mps 754 mmHg 69%
    02:00 +16°C° 0 mm 5 mps 754 mmHg 71%
    03:00 +16°C° 0 mm 5 mps 755 mmHg 71%
    04:00 +16°C° 0 mm 5 mps 755 mmHg 71%
    05:00 +16°C° 0 mm 5 mps 756 mmHg 71%
    06:00 +17°C° 0 mm 5 mps 756 mmHg 61%
    07:00 +19°C° 0 mm 5 mps 756 mmHg 51%
    08:00 +21°C° 0 mm 5 mps 757 mmHg 42%
    09:00 +22°C° 0 mm 5 mps 757 mmHg 37%
    10:00 +23°C° 0 mm 5 mps 756 mmHg 33%
    11:00 +25°C° 0 mm 5 mps 756 mmHg 28%
    12:00 +26°C° 0 mm 6 mps 756 mmHg 27%
    13:00 +27°C° 0 mm 6 mps 755 mmHg 25%
    14:00 +28°C° 0 mm 6 mps 754 mmHg 23%
    15:00 +29°C° 0 mm 5 mps 754 mmHg 22%
    16:00 +29°C° 0 mm 5 mps 753 mmHg 22%
    17:00 +30°C° 0 mm 4 mps 753 mmHg 21%
    18:00 +28°C° 0 mm 4 mps 753 mmHg 25%
    19:00 +27°C° 0 mm 4 mps 752 mmHg 28%
    20:00 +25°C° 0 mm 4 mps 752 mmHg 32%
    21:00 +25°C° 0 mm 5 mps 752 mmHg 31%
    22:00 +25°C° 0 mm 5 mps 752 mmHg 31%
    23:00 +24°C° 0 mm 6 mps 751 mmHg 30%

    16 December, Sunday

    Time Temperature Precipitation Wind Pressure Humidity
    00:00 +24°C° 0 mm 6 mps 751 mmHg 28%
    01:00 +24°C° 0 mm 7 mps 750 mmHg 27%
    02:00 +24°C° 0 mm 7 mps 750 mmHg 25%
    03:00 +24°C° 0 mm 6 mps 750 mmHg 31%
    04:00 +23°C° 0 mm 5 mps 750 mmHg 37%
    05:00 +22°C° 0 mm 4 mps 750 mmHg 42%
    06:00 +25°C° 0 mm 5 mps 751 mmHg 39%
    07:00 +26°C° 0 mm 6 mps 751 mmHg 35%
    08:00 +28°C° 0 mm 7 mps 751 mmHg 32%
    09:00 +29°C° 0 mm 7 mps 752 mmHg 30%
    10:00 +29°C° 0 mm 7 mps 752 mmHg 29%
    11:00 +30°C° 0 mm 7 mps 752 mmHg 28%
    12:00 +29°C° 0 mm 8 mps 752 mmHg 29%
    13:00 +29°C° 0 mm 9 mps 752 mmHg 29%
    14:00 +29°C° 0 mm 9 mps 753 mmHg 29%
    15:00 +27°C° 0 mm 9 mps 753 mmHg 34%
    16:00 +24°C° 0 mm 9 mps 753 mmHg 38%
    17:00 +21°C° 0 mm 9 mps 754 mmHg 42%
    18:00 +19°C° 0 mm 9 mps 754 mmHg 45%
    19:00 +18°C° 0 mm 9 mps 755 mmHg 49%
    20:00 +17°C° 0 mm 9 mps 756 mmHg 52%
    21:00 +17°C° 0 mm 8 mps 757 mmHg 52%
    22:00 +16°C° 0 mm 7 mps 758 mmHg 51%
    23:00 +16°C° 0 mm 6 mps 758 mmHg 51%

    17 December, Monday

    Time Temperature Precipitation Wind Pressure Humidity
    00:00 +16°C° 0 mm 5 mps 759 mmHg 52%
    01:00 +17°C° 0 mm 4 mps 759 mmHg 53%
    02:00 +16°C° 0 mm 3 mps 760 mmHg 54%
    03:00 +16°C° 0 mm 3 mps 760 mmHg 55%
    04:00 +16°C° 0 mm 2 mps 761 mmHg 56%
    05:00 +15°C° 0 mm 2 mps 761 mmHg 57%
    06:00 +16°C° 0 mm 2 mps 762 mmHg 52%
    07:00 +17°C° 0 mm 2 mps 762 mmHg 48%
    08:00 +18°C° 0 mm 3 mps 762 mmHg 43%
    09:00 +20°C° 0 mm 3 mps 762 mmHg 40%
    10:00 +21°C° 0 mm 3 mps 762 mmHg 36%
    11:00 +22°C° 0 mm 3 mps 762 mmHg 33%
    12:00 +24°C° 0 mm 3 mps 761 mmHg 32%
    13:00 +25°C° 0 mm 3 mps 761 mmHg 30%
    14:00 +26°C° 0 mm 4 mps 760 mmHg 29%
    15:00 +26°C° 0 mm 4 mps 760 mmHg 29%
    16:00 +26°C° 0 mm 4 mps 759 mmHg 30%
    17:00 +26°C° 0 mm 4 mps 758 mmHg 30%
    18:00 +23°C° 0 mm 6 mps 758 mmHg 34%
    19:00 +22°C° 0 mm 7 mps 757 mmHg 37%
    20:00 +21°C° 0 mm 8 mps 757 mmHg 41%
    21:00 +20°C° 0 mm 8 mps 757 mmHg 43%
    22:00 +19°C° 0 mm 9 mps 756 mmHg 45%
    23:00 +18°C° 0 mm 9 mps 756 mmHg 47%
    Show more